Home > Weather > Ludwigshafen > Past weeks

Flag for Germany Past Weather in Ludwigshafen, Rhineland-Palatinate, Germany — Yesterday and Last 2 Weeks

Now
66 °F

Partly sunny.


Feels Like: 66 °F
Forecast: 54 / 70 °F
Wind: 14 mph from Northwest

Location: Mannheim City

Current Time: Jun 25, 2016 at 9:35:38 PM

Latest Report: Jun 25, 2016 at 7:50 PM


Visibility: N/A

Pressure: 30.01 "Hg

Humidity: 68%

Dew Point: 55 °F

Location of LudwigshafenLocation

Past Weather in Ludwigshafen — Graph

°F

Ludwigshafen Temperature Yesterday

Maximum temperature yesterday: 91 °F (at 3:20 PM)
Minimum temperature yesterday: 73 °F (at 5:50 AM)
Average temperature yesterday: 83 °F

High & Low Weather Summary for the Past Weeks

 TemperatureHumidityPressure
High93 °F (Jun 23, 5:50 PM)100% (Jun 12, 7:50 AM)30.24 "Hg (Jun 12, 7:50 AM)
Low52 °F (Jun 20, 5:20 AM)32% (Jun 23, 7:20 PM)29.53 "Hg (Jun 14, 2:20 PM)
Average68 °F73%29.91 "Hg
* Reported Jun 10 7:20 PM — Jun 25 7:50 PM, Ludwigshafen, Weather by CustomWeather, © 2016

Note: Actual official high and low records may vary slightly from our data, if they occured in-between our weather recording intervals... More about our weather records

Advertising

Ludwigshafen Weather History for the Previous 24 Hours

Scroll right to see more
 ConditionsComfort  
Time TempWeatherWind HumidityBarometerVisibility
7:50 PM
Sat, Jun 25
66 °FPartly sunny.14 mph68%30.01 "HgN/A
7:20 PM68 °FPartly sunny.15 mph69%29.98 "HgN/A
6:50 PM66 °FPartly sunny.12 mph73%29.98 "HgN/A
6:20 PM66 °FPartly sunny.14 mph73%29.98 "HgN/A
5:50 PM66 °FPartly sunny.14 mph78%29.98 "HgN/A
5:20 PM66 °FPartly sunny.13 mph83%29.95 "HgN/A
4:50 PM66 °FSprinkles. Partly sunny.15 mph88%29.95 "HgN/A
4:20 PM70 °FSprinkles. Partly sunny.20 mph83%29.92 "HgN/A
3:50 PM73 °FThundershowers. Partly sunny.18 mph69%29.89 "HgN/A
3:20 PM79 °FScattered clouds.8 mph61%29.86 "HgN/A
2:50 PM77 °FScattered clouds.9 mph65%29.86 "HgN/A
2:20 PM75 °FScattered clouds.9 mph69%29.89 "HgN/A
1:50 PM75 °FScattered clouds.8 mph69%29.89 "HgN/A
1:20 PM75 °FScattered clouds.6 mph74%29.89 "HgN/A
12:50 PM75 °FScattered clouds.7 mph74%29.89 "HgN/A
12:20 PM75 °FScattered clouds.7 mph74%29.92 "HgN/A
11:50 AM72 °FPartly sunny.8 mph88%29.92 "HgN/A
11:20 AM72 °FBroken clouds.8 mph88%29.92 "HgN/A
10:50 AM70 °FBroken clouds.8 mph94%29.95 "HgN/A
10:20 AM68 °FPartly sunny.7 mph94%29.95 "HgN/A
9:50 AM68 °FBroken clouds.2 mph100%29.95 "HgN/A
9:20 AM66 °FLight rain. Broken clouds.6 mph100%29.92 "HgN/A
8:50 AM66 °FLight rain. Partly sunny.5 mph100%29.92 "HgN/A
8:20 AM66 °FLight rain. Broken clouds.5 mph100%29.92 "HgN/A
7:50 AM66 °FBroken clouds.7 mph100%29.92 "HgN/A
7:20 AM66 °FLight rain. Broken clouds.5 mph100%29.95 "HgN/A
Weather by CustomWeather, © 2016

See weather overviewHow to use our weather pages